Hourly Data Report for July 22, 2012

HALIFAX STANFIELD INT'L A
NOVA SCOTIA

44°52'48.060" N
63°30'00.050" W
145.40 m
8202250
71395
YHZ

Download Data

Hourly Data (July 2012)
Hourly Data Report for July 22, 2012
TIME
LST
Temp Definition
°C
Dew Point Definition
°C
Rel Hum Definition
%
Precip. Amount Definition
mm

Wind Dir Definition
10's deg

Wind Spd Definition
km/h
Visibility Definition
km
Stn Press Definition
kPa
Hmdx Definition


Wind Chill Definition


Weather Definition


00:00 13.2 11.6 90   19 11 24.1 100.18     Clear
01:00 12.9 11.8 93   21 9 24.1 100.17     Clear
02:00 13.8 12.8 94   24 9 24.1 100.20     Clear
03:00 14.6 12.1 85   27 6 24.1 100.17     Mainly Clear
04:00 14.0 11.4 84     0 24.1 100.19     Mostly Cloudy
05:00 13.0 11.9 93     0 24.1 100.22     Mainly Clear
06:00 13.9 12.2 89   21 7 24.1 100.24     Mostly Cloudy
07:00 15.6 12.6 82   19 11 24.1 100.27     Mainly Clear
08:00 19.1 13.1 68   21 11 24.1 100.27     Mainly Clear
09:00 21.4 13.1 59   20 9 24.1 100.26     Mostly Cloudy
10:00 23.5 12.4 50   27 15 24.1 100.25 26   Mostly Cloudy
11:00 24.0 13.1 51   25 15 24.1 100.23 27   Mostly Cloudy
12:00 25.0 13.2 48   26 11 24.1 100.19 28   Mostly Cloudy
13:00 25.0 13.0 47   22 13 24.1 100.20 28   Mostly Cloudy
14:00 26.0 12.5 43   21 19 24.1 100.15 29   Mainly Clear
15:00 25.6 12.5 44   22 28 24.1 100.12 28   Mainly Clear
16:00 24.6 11.7 44   22 28 24.1 100.15 27   Mainly Clear
17:00 24.4 11.6 45   22 22 24.1 100.14 26   Mainly Clear
18:00 23.0 11.9 50   20 20 24.1 100.14 25   Mainly Clear
19:00 20.9 11.7 56   20 22 24.1 100.16     Mainly Clear
20:00 18.9 11.4 62   19 19 24.1 100.14     Mainly Clear
21:00 17.5 12.5 72   21 15 24.1 100.20     Mainly Clear
22:00 17.2 12.8 75   22 13 24.1 100.19     Clear
23:00 16.6 12.8 78   22 17 24.1 100.21     Clear

Notes on Data Quality.

Legend

  • E = Estimated
  • M = Missing
  • NA = Not Available*
  • [empty] = Indicates an unobserved value
Date modified: